,,Stat5,,Stat1,,Stat2,,Stat3,,Stat4,,Wind1,,Wind1,
time,status,PA1M_AVG,status,PR1M_SUM,status,RH1M_AVG,status,SR1M_AVG,status,TA1M_AVG,status,W1dAve1m,status,W1sAve1m,
2000-12-24, 00:00:00,VALID,918.099,VALID,0,VALID,98.0369,VALID,0.0169808,VALID,19.1139,VALID,204,VALID,0.540365,
2000-12-24, 00:01:00,VALID,918.099,VALID,0,VALID,98.028,VALID,0.0169808,VALID,19.1201,VALID,203,VALID,0.554464,
2000-12-24, 00:02:00,VALID,918.09,VALID,0,VALID,97.9314,VALID,0,VALID,19.1492,VALID,196,VALID,0.54603,
2000-12-24, 00:03:00,VALID,918.091,VALID,0,VALID,97.8271,VALID,0.0169808,VALID,19.1559,VALID,186,VALID,0.464021,
2000-12-24, 00:04:00,VALID,918.074,VALID,0,VALID,97.6885,VALID,0,VALID,19.1557,VALID,180,VALID,0.0939611,
2000-12-24, 00:05:00,VALID,918.067,VALID,0,VALID,97.6821,VALID,0,VALID,19.1524,VALID,180,VALID,0,
2000-12-24, 00:06:00,VALID,918.053,VALID,0,VALID,97.7139,VALID,0,VALID,19.1554,VALID,192,VALID,0.264246,
2000-12-24, 00:07:00,VALID,918.037,VALID,0,VALID,97.6592,VALID,0,VALID,19.1721,VALID,190,VALID,0.775127,
2000-12-24, 00:08:00,VALID,918.026,VALID,0,VALID,97.5893,VALID,0,VALID,19.1492,VALID,184,VALID,0.638672,
2000-12-24, 00:09:00,VALID,918.007,VALID,0,VALID,97.5499,VALID,0,VALID,19.1398,VALID,182,VALID,0.44299,
2000-12-24, 00:10:00,VALID,917.987,VALID,0,VALID,97.5575,VALID,0,VALID,19.1234,VALID,174,VALID,0.454814,
2000-12-24, 00:11:00,VALID,917.97,VALID,0,VALID,97.6274,VALID,0.0169808,VALID,19.1072,VALID,167,VALID,0.525586,
2000-12-24, 00:12:00,VALID,917.969,VALID,0,VALID,97.6084,VALID,-0.0169808,VALID,19.1077,VALID,171,VALID,0.517428,
2000-12-24, 00:13:00,VALID,917.962,VALID,0,VALID,97.5346,VALID,0.0169808,VALID,19.1236,VALID,181,VALID,0.647852,
2000-12-24, 00:14:00,VALID,917.954,VALID,0,VALID,97.4011,VALID,0.0169808,VALID,19.1363,VALID,185,VALID,0.672286,
2000-12-24, 00:15:00,VALID,917.933,VALID,0,VALID,97.3426,VALID,0.0169808,VALID,19.1462,VALID,199,VALID,0.425195,
2000-12-24, 00:16:00,VALID,917.92,VALID,0,VALID,97.3833,VALID,0,VALID,19.1328,VALID,195,VALID,0.756811,
2000-12-24, 00:17:00,VALID,917.907,VALID,0,VALID,97.4354,VALID,0.0169808,VALID,19.1328,VALID,200,VALID,0.650391,
2000-12-24, 00:18:00,VALID,917.889,VALID,0,VALID,97.4367,VALID,0,VALID,19.1393,VALID,198,VALID,0.684622,
2000-12-24, 00:19:00,VALID,917.876,VALID,0,VALID,97.4583,VALID,0,VALID,19.1492,VALID,187,VALID,0.555078,
2000-12-24, 00:20:00,VALID,917.857,VALID,0,VALID,97.4316,VALID,0.0339617,VALID,19.1428,VALID,186,VALID,0.445313,
2000-12-24, 00:21:00,VALID,917.827,VALID,0,VALID,97.4303,VALID,-0.0169808,VALID,19.1358,VALID,199,VALID,0.35957,
2000-12-24, 00:22:00,VALID,917.795,VALID,0,VALID,97.5346,VALID,0.0169808,VALID,19.1393,VALID,206,VALID,0.762541,
2000-12-24, 00:23:00,VALID,917.749,VALID,0,VALID,97.6262,VALID,0,VALID,19.1524,VALID,213,VALID,0.894141,
2000-12-24, 00:24:00,VALID,917.737,VALID,0,VALID,97.7406,VALID,0,VALID,19.1656,VALID,208,VALID,0.78766,
2000-12-24, 00:25:00,VALID,917.711,VALID,0,VALID,97.7559,VALID,0,VALID,19.149,VALID,203,VALID,0.527734,
2000-12-24, 00:26:00,VALID,917.697,VALID,0,VALID,97.766,VALID,-0.0169808,VALID,19.146,VALID,202,VALID,0.375822,
2000-12-24, 00:27:00,VALID,917.682,VALID,0,VALID,97.836,VALID,0,VALID,19.1331,VALID,201,VALID,0.0998047,
2000-12-24, 00:28:00,VALID,917.659,VALID,0,VALID,97.8805,VALID,0.0169808,VALID,19.1234,VALID,198,VALID,0.532422,
2000-12-24, 00:29:00,VALID,917.647,VALID,0,VALID,97.8996,VALID,0,VALID,19.1167,VALID,201,VALID,0.277734,
2000-12-24, 00:30:00,VALID,917.629,VALID,0,VALID,97.9288,VALID,0,VALID,19.1142,VALID,203,VALID,0.433183,
2000-12-24, 00:31:00,VALID,917.624,VALID,0,VALID,97.9746,VALID,0.0509425,VALID,19.104,VALID,203,VALID,0.60625,
2000-12-24, 00:32:00,VALID,917.602,VALID,0,VALID,98.0318,VALID,0.0169808,VALID,19.097,VALID,202,VALID,0.50601,
2000-12-24, 00:33:00,VALID,917.593,VALID,0,VALID,98.0674,VALID,0.0339617,VALID,19.0874,VALID,215,VALID,0.463867,
2000-12-24, 00:34:00,VALID,917.571,VALID,0,VALID,98.1081,VALID,0.0509425,VALID,19.0747,VALID,212,VALID,0.423931,
2000-12-24, 00:35:00,VALID,917.559,VALID,0,VALID,98.1094,VALID,-0.0509425,VALID,19.063,VALID,206,VALID,0.336328,
2000-12-24, 00:36:00,VALID,917.546,VALID,0,VALID,98.1386,VALID,-0.0849042,VALID,19.0436,VALID,203,VALID,0.0633013,
2000-12-24, 00:37:00,VALID,917.535,VALID,0,VALID,98.1844,VALID,-0.0849042,VALID,19.0242,VALID,197,VALID,0.443945,
2000-12-24, 00:38:00,VALID,917.504,VALID,0,VALID,98.2531,VALID,-0.0849042,VALID,19.0212,VALID,198,VALID,0.488692,
2000-12-24, 00:39:00,VALID,917.487,VALID,0,VALID,98.3065,VALID,-0.0849042,VALID,19.0184,VALID,198,VALID,0.483203,
2000-12-24, 00:40:00,VALID,917.452,VALID,0,VALID,98.3205,VALID,-0.0849042,VALID,19.0085,VALID,201,VALID,0.403446,
2000-12-24, 00:41:00,VALID,917.428,VALID,0,VALID,98.3319,VALID,-0.0849042,VALID,19.009,VALID,193,VALID,0.421484,
2000-12-24, 00:42:00,VALID,917.408,VALID,0,VALID,98.3764,VALID,-0.101885,VALID,19.0025,VALID,188,VALID,0.581003,
2000-12-24, 00:43:00,VALID,917.389,VALID,0,VALID,98.4311,VALID,-0.101885,VALID,18.9919,VALID,193,VALID,0.735352,
2000-12-24, 00:44:00,VALID,917.383,VALID,0,VALID,98.4807,VALID,-0.101885,VALID,18.9956,VALID,196,VALID,0.673077,
2000-12-24, 00:45:00,VALID,917.376,VALID,0,VALID,98.4807,VALID,-0.0849042,VALID,18.9886,VALID,201,VALID,0.633594,
2000-12-24, 00:46:00,VALID,917.36,VALID,0,VALID,98.4934,VALID,-0.118866,VALID,18.9827,VALID,202,VALID,0.553454,
2000-12-24, 00:47:00,VALID,917.347,VALID,0,VALID,98.5137,VALID,-0.0849042,VALID,18.9931,VALID,209,VALID,0.723242,
2000-12-24, 00:48:00,VALID,917.333,VALID,0,VALID,98.529,VALID,-0.101885,VALID,18.9829,VALID,213,VALID,0.523237,
2000-12-24, 00:49:00,VALID,917.313,VALID,0,VALID,98.5354,VALID,-0.101885,VALID,18.9769,VALID,210,VALID,0.563086,
2000-12-24, 00:50:00,VALID,917.301,VALID,0,VALID,98.5697,VALID,-0.101885,VALID,18.9705,VALID,219,VALID,0.702303,
2000-12-24, 00:51:00,VALID,917.289,VALID,0,VALID,98.604,VALID,-0.101885,VALID,18.9605,VALID,221,VALID,0.745313,
2000-12-24, 00:52:00,VALID,917.274,VALID,0,VALID,98.6193,VALID,-0.0849042,VALID,18.9573,VALID,226,VALID,0.575321,
2000-12-24, 00:53:00,VALID,917.25,VALID,0,VALID,98.6371,VALID,-0.101885,VALID,18.9474,VALID,227,VALID,0.769531,
2000-12-24, 00:54:00,VALID,917.247,VALID,0,VALID,98.6625,VALID,-0.0849042,VALID,18.9571,VALID,225,VALID,0.884868,
2000-12-24, 00:55:00,VALID,917.241,VALID,0,VALID,98.688,VALID,-0.101885,VALID,18.9702,VALID,219,VALID,0.95,
2000-12-24, 00:56:00,VALID,917.221,VALID,0,VALID,98.7147,VALID,-0.0849042,VALID,18.9667,VALID,223,VALID,1.03766,
2000-12-24, 00:57:00,VALID,917.215,VALID,0,VALID,98.7248,VALID,-0.0849042,VALID,18.963,VALID,224,VALID,1.01016,
2000-12-24, 00:58:00,VALID,917.214,VALID,0,VALID,98.7287,VALID,-0.101885,VALID,18.9727,VALID,230,VALID,0.763569,
2000-12-24, 00:59:00,VALID,917.208,VALID,0,VALID,98.7197,VALID,-0.0679233,VALID,18.9829,VALID,232,VALID,0.808789,
2000-12-24, 01:00:00,VALID,917.201,VALID,0,VALID,98.7236,VALID,-0.0849042,VALID,18.9824,VALID,231,VALID,0.844351,
2000-12-24, 01:01:00,VALID,917.195,VALID,0,VALID,98.7248,VALID,-0.101885,VALID,18.9926,VALID,231,VALID,0.772656,
2000-12-24, 01:02:00,VALID,917.189,VALID,0,VALID,98.7147,VALID,-0.101885,VALID,19.0055,VALID,232,VALID,0.67023,
2000-12-24, 01:03:00,VALID,917.181,VALID,0,VALID,98.7108,VALID,-0.0679233,VALID,18.9986,VALID,232,VALID,0.205859,
2000-12-24, 01:04:00,VALID,917.189,VALID,0,VALID,98.6803,VALID,-0.0849042,VALID,19.0025,VALID,230,VALID,0.25641,
2000-12-24, 01:05:00,VALID,917.174,VALID,0,VALID,98.6841,VALID,-0.101885,VALID,19.0058,VALID,235,VALID,0.27207,
2000-12-24, 01:06:00,VALID,917.176,VALID,0,VALID,98.6536,VALID,-0.101885,VALID,18.9988,VALID,235,VALID,0.00472862,
2000-12-24, 01:07:00,VALID,917.159,VALID,0,VALID,98.6435,VALID,-0.101885,VALID,18.9921,VALID,236,VALID,0.210547,
2000-12-24, 01:08:00,VALID,917.148,VALID,0,VALID,98.6435,VALID,-0.101885,VALID,18.9926,VALID,235,VALID,0.393229,
2000-12-24, 01:09:00,VALID,917.139,VALID,0,VALID,98.6524,VALID,-0.0679233,VALID,18.9861,VALID,225,VALID,0.478906,
2000-12-24, 01:10:00,VALID,917.124,VALID,0,VALID,98.6562,VALID,-0.101885,VALID,18.9824,VALID,219,VALID,0.628906,
2000-12-24, 01:11:00,VALID,917.111,VALID,0,VALID,98.6536,VALID,-0.0849042,VALID,18.9764,VALID,217,VALID,0.231055,
2000-12-24, 01:12:00,VALID,917.093,VALID,0,VALID,98.6727,VALID,-0.101885,VALID,18.9665,VALID,216,VALID,0.16887,
2000-12-24, 01:13:00,VALID,917.081,VALID,0,VALID,98.6854,VALID,-0.101885,VALID,18.9605,VALID,204,VALID,0.228125,
2000-12-24, 01:14:00,VALID,917.08,VALID,0,VALID,98.7096,VALID,-0.0849042,VALID,18.9568,VALID,175,VALID,0.589638,
2000-12-24, 01:15:00,VALID,917.063,VALID,0,VALID,98.7401,VALID,-0.0849042,VALID,18.9633,VALID,175,VALID,0.676758,
2000-12-24, 01:16:00,VALID,917.065,VALID,0,VALID,98.7566,VALID,-0.0849042,VALID,18.9732,VALID,176,VALID,0.752804,
2000-12-24, 01:17:00,VALID,917.045,VALID,0,VALID,98.7274,VALID,-0.0849042,VALID,18.9958,VALID,178,VALID,0.779883,
2000-12-24, 01:18:00,VALID,917.029,VALID,0,VALID,98.6714,VALID,-0.0679233,VALID,18.9956,VALID,181,VALID,0.910773,
2000-12-24, 01:19:00,VALID,916.991,VALID,0,VALID,98.5811,VALID,-0.0679233,VALID,19.0184,VALID,180,VALID,0.878516,
2000-12-24, 01:20:00,VALID,916.974,VALID,0,VALID,98.4769,VALID,-0.101885,VALID,19.0281,VALID,184,VALID,0.703325,
2000-12-24, 01:21:00,VALID,916.973,VALID,0,VALID,98.379,VALID,-0.101885,VALID,19.0478,VALID,183,VALID,0.472852,
2000-12-24, 01:22:00,VALID,916.954,VALID,0,VALID,98.309,VALID,-0.0679233,VALID,19.0607,VALID,194,VALID,0.529811,
2000-12-24, 01:23:00,VALID,916.943,VALID,0,VALID,98.2734,VALID,-0.101885,VALID,19.0609,VALID,212,VALID,0.588672,
2000-12-24, 01:24:00,VALID,916.932,VALID,0,VALID,98.2429,VALID,-0.0679233,VALID,19.0639,VALID,216,VALID,0.439303,
2000-12-24, 01:25:00,VALID,916.926,VALID,0,VALID,98.1971,VALID,-0.101885,VALID,19.057,VALID,211,VALID,0.729688,
2000-12-24, 01:26:00,VALID,916.915,VALID,0,VALID,98.1666,VALID,-0.101885,VALID,19.0639,VALID,214,VALID,0.870683,
2000-12-24, 01:27:00,VALID,916.895,VALID,0,VALID,98.159,VALID,-0.0849042,VALID,19.0413,VALID,213,VALID,0.820117,
2000-12-24, 01:28:00,VALID,916.879,VALID,0,VALID,98.1971,VALID,-0.101885,VALID,19.0311,VALID,201,VALID,0.642228,
2000-12-24, 01:29:00,VALID,916.866,VALID,0,VALID,98.2467,VALID,-0.0849042,VALID,19.0055,VALID,196,VALID,0.643359,
2000-12-24, 01:30:00,VALID,916.841,VALID,0,VALID,98.2671,VALID,-0.101885,VALID,18.9931,VALID,196,VALID,0.589433,
2000-12-24, 01:31:00,VALID,916.819,VALID,0,VALID,98.3167,VALID,-0.0679233,VALID,18.9638,VALID,200,VALID,0.764844,
2000-12-24, 01:32:00,VALID,916.801,VALID,0,VALID,98.379,VALID,-0.101885,VALID,18.9407,VALID,196,VALID,0.844952,
2000-12-24, 01:33:00,VALID,916.783,VALID,0,VALID,98.4565,VALID,-0.118866,VALID,18.9285,VALID,196,VALID,0.796484,
2000-12-24, 01:34:00,VALID,916.779,VALID,0,VALID,98.5099,VALID,-0.101885,VALID,18.9121,VALID,197,VALID,0.771998,
2000-12-24, 01:35:00,VALID,916.771,VALID,0,VALID,98.5735,VALID,0,VALID,18.9046,VALID,202,VALID,0.925977,
2000-12-24, 01:36:00,VALID,916.753,VALID,0,VALID,98.6473,VALID,0.0169808,VALID,18.898,VALID,200,VALID,1.05128,
2000-12-24, 01:37:00,VALID,916.752,VALID,0,VALID,98.6918,VALID,0.0169808,VALID,18.8883,VALID,207,VALID,0.988086,
2000-12-24, 01:38:00,VALID,916.737,VALID,0,VALID,98.7197,VALID,0,VALID,18.895,VALID,214,VALID,0.986842,
2000-12-24, 01:39:00,VALID,916.723,VALID,0,VALID,98.749,VALID,0,VALID,18.8818,VALID,213,VALID,1.07246,
2000-12-24, 01:40:00,VALID,916.717,VALID,0,VALID,98.7617,VALID,0,VALID,18.8753,VALID,207,VALID,1.16026,
2000-12-24, 01:41:00,VALID,916.701,VALID,0,VALID,98.8037,VALID,0,VALID,18.8661,VALID,215,VALID,1.10801,
2000-12-24, 01:42:00,VALID,916.695,VALID,0,VALID,98.824,VALID,0,VALID,18.8562,VALID,213,VALID,0.928248,
2000-12-24, 01:43:00,VALID,916.683,VALID,0,VALID,98.8393,VALID,0,VALID,18.843,VALID,213,VALID,1.09023,
2000-12-24, 01:44:00,VALID,916.688,VALID,0,VALID,98.8545,VALID,0,VALID,18.8368,VALID,200,VALID,0.663462,
2000-12-24, 01:45:00,VALID,916.673,VALID,0,VALID,98.8762,VALID,0,VALID,18.8306,VALID,201,VALID,0.992578,
2000-12-24, 01:46:00,VALID,916.657,VALID,0,VALID,98.9194,VALID,0,VALID,18.8167,VALID,202,VALID,1.17249,
2000-12-24, 01:47:00,VALID,916.63,VALID,0,VALID,98.9448,VALID,0,VALID,18.8172,VALID,205,VALID,0.890234,
2000-12-24, 01:48:00,VALID,916.613,VALID,0,VALID,98.9728,VALID,0.0169808,VALID,18.7971,VALID,208,VALID,0.577324,
2000-12-24, 01:49:00,VALID,916.625,VALID,0,VALID,98.9893,VALID,0,VALID,18.801,VALID,204,VALID,0.656836,
2000-12-24, 01:50:00,VALID,916.621,VALID,0,VALID,99.0084,VALID,-0.0169808,VALID,18.7946,VALID,210,VALID,0.85259,
2000-12-24, 01:51:00,VALID,916.614,VALID,0,VALID,99.0377,VALID,0,VALID,18.7814,VALID,210,VALID,0.786719,
2000-12-24, 01:52:00,VALID,916.636,VALID,0,VALID,99.0707,VALID,0.0339617,VALID,18.7881,VALID,207,VALID,0.669671,
2000-12-24, 01:53:00,VALID,916.643,VALID,0,VALID,99.0898,VALID,0,VALID,18.7747,VALID,211,VALID,0.398438,
2000-12-24, 01:54:00,VALID,916.655,VALID,0,VALID,99.1012,VALID,0,VALID,18.7879,VALID,206,VALID,0.332442,
2000-12-24, 01:55:00,VALID,916.656,VALID,0,VALID,99.1381,VALID,-0.0339617,VALID,18.7976,VALID,192,VALID,0.522852,
2000-12-24, 01:56:00,VALID,916.658,VALID,0,VALID,99.175,VALID,0,VALID,18.8204,VALID,164,VALID,0.429087,
2000-12-24, 01:57:00,VALID,916.648,VALID,0,VALID,99.1508,VALID,0.0169808,VALID,18.8229,VALID,177,VALID,0.175,
2000-12-24, 01:58:00,VALID,916.642,VALID,0,VALID,99.1661,VALID,0,VALID,18.8103,VALID,170,VALID,0.489104,
2000-12-24, 01:59:00,VALID,916.637,VALID,0,VALID,99.1648,VALID,0,VALID,18.8229,VALID,147,VALID,0.464453,
2000-12-24, 02:00:00,VALID,916.612,VALID,0,VALID,99.1648,VALID,0,VALID,18.8135,VALID,148,VALID,0.753606,
2000-12-24, 02:01:00,VALID,916.601,VALID,0,VALID,99.1661,VALID,0,VALID,18.8165,VALID,155,VALID,0.764648,
2000-12-24, 02:02:00,VALID,916.591,VALID,0,VALID,99.1381,VALID,0,VALID,18.8137,VALID,156,VALID,0.561678,
2000-12-24, 02:03:00,VALID,916.571,VALID,0,VALID,99.1368,VALID,0,VALID,18.8142,VALID,150,VALID,0.587695,
2000-12-24, 02:04:00,VALID,916.554,VALID,0,VALID,99.1228,VALID,0,VALID,18.814,VALID,136,VALID,0.509816,
2000-12-24, 02:05:00,VALID,916.535,VALID,0,VALID,99.1152,VALID,0,VALID,18.8045,VALID,126,VALID,0.541016,
2000-12-24, 02:06:00,VALID,916.531,VALID,0,VALID,99.0923,VALID,-0.0169808,VALID,18.795,VALID,120,VALID,0.676398,
2000-12-24, 02:07:00,VALID,916.504,VALID,0,VALID,99.0567,VALID,0.0339617,VALID,18.7553,VALID,135,VALID,0.735156,
2000-12-24, 02:08:00,VALID,916.481,VALID,0,VALID,99.0656,VALID,0.0339617,VALID,18.7422,VALID,136,VALID,0.808494,
2000-12-24, 02:09:00,VALID,916.463,VALID,0,VALID,99.0707,VALID,0,VALID,18.7558,VALID,141,VALID,0.681445,
2000-12-24, 02:10:00,VALID,916.447,VALID,0,VALID,99.0783,VALID,0,VALID,18.7528,VALID,145,VALID,0.675164,
2000-12-24, 02:11:00,VALID,916.431,VALID,0,VALID,99.0822,VALID,0,VALID,18.7528,VALID,154,VALID,0.748438,
2000-12-24, 02:12:00,VALID,916.421,VALID,0,VALID,99.1203,VALID,0,VALID,18.762,VALID,159,VALID,1.00881,
2000-12-24, 02:13:00,VALID,916.414,VALID,0,VALID,99.1139,VALID,0,VALID,18.7687,VALID,168,VALID,0.864453,
2000-12-24, 02:14:00,VALID,916.392,VALID,0,VALID,99.1279,VALID,0,VALID,18.7715,VALID,175,VALID,1.01419,
2000-12-24, 02:15:00,VALID,916.388,VALID,0,VALID,99.1279,VALID,0.0169808,VALID,18.7844,VALID,189,VALID,0.751172,
2000-12-24, 02:16:00,VALID,916.388,VALID,0,VALID,99.1356,VALID,0.0509425,VALID,18.7876,VALID,194,VALID,0.867188,
2000-12-24, 02:17:00,VALID,916.377,VALID,0,VALID,99.1445,VALID,0.0169808,VALID,18.7978,VALID,203,VALID,0.614844,
2000-12-24, 02:18:00,VALID,916.382,VALID,0,VALID,99.1496,VALID,0,VALID,18.8045,VALID,210,VALID,0.794408,
2000-12-24, 02:19:00,VALID,916.378,VALID,0,VALID,99.1457,VALID,0.0169808,VALID,18.801,VALID,194,VALID,0.756836,
2000-12-24, 02:20:00,VALID,916.387,VALID,0,VALID,99.1457,VALID,-0.0679233,VALID,18.808,VALID,192,VALID,0.773037,
2000-12-24, 02:21:00,VALID,916.395,VALID,0,VALID,99.1343,VALID,-0.0509425,VALID,18.8179,VALID,172,VALID,0.654848,
2000-12-24, 02:22:00,VALID,916.39,VALID,0,VALID,99.133,VALID,-0.0849042,VALID,18.8211,VALID,158,VALID,0.609581,
2000-12-24, 02:23:00,VALID,916.397,VALID,0,VALID,99.1267,VALID,-0.0339617,VALID,18.8338,VALID,145,VALID,0.497461,
2000-12-24, 02:24:00,VALID,916.388,VALID,0,VALID,99.1,VALID,-0.0679233,VALID,18.8345,VALID,140,VALID,0.346154,
2000-12-24, 02:25:00,VALID,916.371,VALID,0,VALID,99.0885,VALID,-0.0849042,VALID,18.8343,VALID,143,VALID,0.0492188,
2000-12-24, 02:26:00,VALID,916.361,VALID,0,VALID,99.0809,VALID,-0.0679233,VALID,18.8211,VALID,149,VALID,0.167146,
2000-12-24, 02:27:00,VALID,916.371,VALID,0,VALID,99.0733,VALID,-0.101885,VALID,18.8216,VALID,162,VALID,0.307031,
2000-12-24, 02:28:00,VALID,916.34,VALID,0,VALID,99.0262,VALID,-0.0679233,VALID,18.795,VALID,155,VALID,0.398237,
2000-12-24, 02:29:00,VALID,916.341,VALID,0,VALID,98.9944,VALID,-0.0849042,VALID,18.7727,VALID,128,VALID,0.510742,
2000-12-24, 02:30:00,VALID,916.333,VALID,0,VALID,98.9982,VALID,-0.0849042,VALID,18.7468,VALID,127,VALID,0.510896,
2000-12-24, 02:31:00,VALID,916.313,VALID,0,VALID,99.0224,VALID,-0.101885,VALID,18.7568,VALID,152,VALID,0.468555,
2000-12-24, 02:32:00,VALID,916.306,VALID,0,VALID,99.058,VALID,-0.0849042,VALID,18.7568,VALID,163,VALID,0.475561,
2000-12-24, 02:33:00,VALID,916.3,VALID,0,VALID,99.0593,VALID,-0.0679233,VALID,18.7697,VALID,188,VALID,0.517773,
2000-12-24, 02:34:00,VALID,916.282,VALID,0,VALID,99.0974,VALID,-0.0679233,VALID,18.7791,VALID,184,VALID,0.617188,
2000-12-24, 02:35:00,VALID,916.271,VALID,0,VALID,99.1127,VALID,-0.0679233,VALID,18.8117,VALID,175,VALID,0.615625,
2000-12-24, 02:36:00,VALID,916.258,VALID,0,VALID,99.0796,VALID,-0.0679233,VALID,18.8147,VALID,175,VALID,0.458534,
2000-12-24, 02:37:00,VALID,916.239,VALID,0,VALID,99.0961,VALID,-0.0679233,VALID,18.8373,VALID,179,VALID,0.568555,
2000-12-24, 02:38:00,VALID,916.227,VALID,0,VALID,99.0656,VALID,-0.0679233,VALID,18.8467,VALID,182,VALID,0.336965,
2000-12-24, 02:39:00,VALID,916.209,VALID,0,VALID,99.03,VALID,-0.0679233,VALID,18.8276,VALID,190,VALID,0.47832,
2000-12-24, 02:40:00,VALID,916.173,VALID,0,VALID,99.0186,VALID,0,VALID,18.844,VALID,196,VALID,0.738582,
2000-12-24, 02:41:00,VALID,916.143,VALID,0,VALID,99.0237,VALID,-0.0339617,VALID,18.8276,VALID,195,VALID,0.941406,
2000-12-24, 02:42:00,VALID,916.098,VALID,0,VALID,99.03,VALID,-0.0679233,VALID,18.8437,VALID,190,VALID,1.15049,
2000-12-24, 02:43:00,VALID,916.077,VALID,0,VALID,99.03,VALID,-0.0509425,VALID,18.84,VALID,191,VALID,1.12012,
2000-12-24, 02:44:00,VALID,916.031,VALID,0,VALID,99.0122,VALID,-0.0339617,VALID,18.8502,VALID,194,VALID,1.11138,
2000-12-24, 02:45:00,VALID,916.009,VALID,0,VALID,99.0059,VALID,-0.0509425,VALID,18.85,VALID,189,VALID,1.22285,
2000-12-24, 02:46:00,VALID,915.978,VALID,0,VALID,98.9919,VALID,-0.0679233,VALID,18.8472,VALID,195,VALID,1.13487,
2000-12-24, 02:47:00,VALID,915.966,VALID,0,VALID,98.9486,VALID,-0.0509425,VALID,18.8534,VALID,195,VALID,1.1625,
2000-12-24, 02:48:00,VALID,915.937,VALID,0,VALID,98.9067,VALID,-0.101885,VALID,18.8537,VALID,193,VALID,0.930088,
2000-12-24, 02:49:00,VALID,915.93,VALID,0,VALID,98.8825,VALID,-0.0679233,VALID,18.8405,VALID,192,VALID,1.15273,
2000-12-24, 02:50:00,VALID,915.918,VALID,0,VALID,98.8558,VALID,0.0339617,VALID,18.8259,VALID,195,VALID,1.09211,
2000-12-24, 02:51:00,VALID,915.923,VALID,0,VALID,98.8177,VALID,0.0509425,VALID,18.8197,VALID,189,VALID,0.835938,
2000-12-24, 02:52:00,VALID,915.929,VALID,0,VALID,98.7617,VALID,0.0169808,VALID,18.8103,VALID,191,VALID,0.601563,
2000-12-24, 02:53:00,VALID,915.922,VALID,0,VALID,98.7554,VALID,0,VALID,18.807,VALID,200,VALID,0.706055,
2000-12-24, 02:54:00,VALID,915.92,VALID,0,VALID,98.7528,VALID,0,VALID,18.7973,VALID,219,VALID,0.829975,
2000-12-24, 02:55:00,VALID,915.897,VALID,0,VALID,98.749,VALID,0,VALID,18.7943,VALID,207,VALID,0.748047,
2000-12-24, 02:56:00,VALID,915.893,VALID,0,VALID,98.7579,VALID,0.0169808,VALID,18.7809,VALID,205,VALID,0.803285,
2000-12-24, 02:57:00,VALID,915.884,VALID,0,VALID,98.7566,VALID,0.0339617,VALID,18.7809,VALID,213,VALID,0.494336,
2000-12-24, 02:58:00,VALID,915.895,VALID,0,VALID,98.7782,VALID,0,VALID,18.7715,VALID,207,VALID,0.726974,
2000-12-24, 02:59:00,VALID,915.897,VALID,0,VALID,98.7922,VALID,0.0169808,VALID,18.7556,VALID,210,VALID,0.341211,
2000-12-24, 03:00:00,VALID,915.891,VALID,0,VALID,98.8278,VALID,0,VALID,18.733,VALID,210,VALID,0.499599,
2000-12-24, 03:01:00,VALID,915.888,VALID,0,VALID,98.852,VALID,0,VALID,18.7193,VALID,216,VALID,0.0863281,
2000-12-24, 03:02:00,VALID,915.884,VALID,0,VALID,98.8622,VALID,0.0339617,VALID,18.723,VALID,198,VALID,0.0425576,
2000-12-24, 03:03:00,VALID,915.866,VALID,0,VALID,98.8774,VALID,0,VALID,18.7066,VALID,183,VALID,0.498633,
2000-12-24, 03:04:00,VALID,915.87,VALID,0,VALID,98.8889,VALID,0.0509425,VALID,18.6937,VALID,178,VALID,0.628606,
2000-12-24, 03:05:00,VALID,915.853,VALID,0,VALID,98.9194,VALID,-0.0509425,VALID,18.6815,VALID,179,VALID,0.580078,
2000-12-24, 03:06:00,VALID,915.842,VALID,0,VALID,98.9296,VALID,-0.0679233,VALID,18.7051,VALID,185,VALID,0.60074,
2000-12-24, 03:07:00,VALID,915.824,VALID,0,VALID,98.9092,VALID,-0.0509425,VALID,18.6919,VALID,202,VALID,0.51875,
2000-12-24, 03:08:00,VALID,915.799,VALID,0,VALID,98.9092,VALID,-0.0509425,VALID,18.6921,VALID,207,VALID,0.639223,
2000-12-24, 03:09:00,VALID,915.775,VALID,0,VALID,98.8914,VALID,-0.101885,VALID,18.6988,VALID,208,VALID,0.760742,
2000-12-24, 03:10:00,VALID,915.739,VALID,0,VALID,98.8723,VALID,-0.0679233,VALID,18.6887,VALID,205,VALID,0.725123,
2000-12-24, 03:11:00,VALID,915.716,VALID,0,VALID,98.8456,VALID,-0.0679233,VALID,18.6887,VALID,214,VALID,0.641406,
2000-12-24, 03:12:00,VALID,915.699,VALID,0,VALID,98.8202,VALID,-0.0679233,VALID,18.6924,VALID,205,VALID,0.541266,
2000-12-24, 03:13:00,VALID,915.679,VALID,0,VALID,98.7871,VALID,-0.0509425,VALID,18.6827,VALID,208,VALID,0.783203,
2000-12-24, 03:14:00,VALID,915.683,VALID,0,VALID,98.7592,VALID,-0.0679233,VALID,18.6825,VALID,203,VALID,0.715872,
2000-12-24, 03:15:00,VALID,915.66,VALID,0,VALID,98.721,VALID,-0.0679233,VALID,18.6857,VALID,208,VALID,0.65957,
2000-12-24, 03:16:00,VALID,915.655,VALID,0,VALID,98.6803,VALID,-0.101885,VALID,18.6857,VALID,194,VALID,0.576723,
2000-12-24, 03:17:00,VALID,915.63,VALID,0,VALID,98.6384,VALID,-0.0679233,VALID,18.6986,VALID,192,VALID,0.550586,
2000-12-24, 03:18:00,VALID,915.621,VALID,0,VALID,98.5926,VALID,0.0169808,VALID,18.6847,VALID,190,VALID,0.68051,
2000-12-24, 03:19:00,VALID,915.597,VALID,0,VALID,98.5735,VALID,0.0169808,VALID,18.6847,VALID,178,VALID,0.871094,
2000-12-24, 03:20:00,VALID,915.145,VALID,0,VALID,98.5481,VALID,-0.101885,VALID,18.6956,VALID,185,VALID,0.967748,
2000-12-24, 03:21:00,VALID,915.566,VALID,0,VALID,98.4718,VALID,-0.101885,VALID,18.6889,VALID,191,VALID,0.80293,
2000-12-24, 03:22:00,VALID,915.552,VALID,0,VALID,98.4222,VALID,-0.0849042,VALID,18.6954,VALID,190,VALID,0.809211,
2000-12-24, 03:23:00,VALID,915.536,VALID,0,VALID,98.3383,VALID,-0.0679233,VALID,18.6984,VALID,189,VALID,0.892773,
2000-12-24, 03:24:00,VALID,915.527,VALID,0,VALID,98.2899,VALID,-0.118866,VALID,18.7018,VALID,183,VALID,0.81891,
2000-12-24, 03:25:01,VALID,915.524,VALID,0,VALID,98.2175,VALID,-0.0849042,VALID,18.718,VALID,180,VALID,0.774219,
2000-12-24, 03:26:00,VALID,915.507,VALID,0,VALID,98.0878,VALID,-0.101885,VALID,18.7247,VALID,175,VALID,0.500411,
2000-12-24, 03:27:00,VALID,915.499,VALID,0,VALID,97.9873,VALID,-0.101885,VALID,18.718,VALID,171,VALID,0.0171875,
2000-12-24, 03:28:00,VALID,915.491,VALID,0,VALID,97.9937,VALID,-0.0509425,VALID,18.7145,VALID,171,VALID,0,
2000-12-24, 03:29:00,VALID,915.484,VALID,0,VALID,97.9949,VALID,-0.0509425,VALID,18.7212,VALID,174,VALID,0.451562,
2000-12-24, 03:30:00,VALID,915.492,VALID,0,VALID,98.0026,VALID,-0.0509425,VALID,18.715,VALID,177,VALID,0.589844,
2000-12-24, 03:31:00,VALID,915.498,VALID,0,VALID,98.0165,VALID,-0.101885,VALID,18.7053,VALID,183,VALID,0.12832,
2000-12-24, 03:32:00,VALID,915.517,VALID,0,VALID,97.9975,VALID,-0.118866,VALID,18.7023,VALID,187,VALID,0,